Retour au catalogue

NOAA 16 DEB

ActifSSO
NORAD 41264·DEBRIS·🇺🇸 United States

Lancé Sep 21, 2000 depuis Vandenberg Space Force Base

Loading…

Prochains Passages (prochaines 24 heures)

TLE

FraisSource: Space-Track

Époque: Sep 13, 2026, 20:56 UTC

1 41264U 00055FQ  26256.87273912  .00001925  00000-0  79509-3 0  9997
2 41264  98.6210 311.0082 0003705 171.7919 188.3323 14.27898082554483

Suivez NOAA 16 DEB en temps réel avec AllMySat

Download on the App Store